Mesquite, TX

6:51 AM CST on December 09, 2016 (GMT -0600)
Mesquite Metro

Weather History for KHQZ - October, 2012

Change the Weather History Date:

Tuesday, October 23, 2012

  Actual Average (KDFW) Record (KDFW)
Temperature  
Mean Temperature 74 °F -  
Max Temperature 82 °F 74 °F 91 °F (1939)
Min Temperature 66 °F 54 °F 36 °F (1990)
Cooling Degree Days 9    
Growing Degree Days 24 (Base 50)    
Moisture  
Dew Point 65 °F    
Average Humidity 74    
Maximum Humidity 94    
Minimum Humidity 54    
Precipitation  
Precipitation 0.00 in - - ()
Sea Level Pressure  
Sea Level Pressure 29.94 in    
Wind  
Wind Speed 10 mph (SSE)    
Max Wind Speed 17 mph    
Max Gust Speed 21 mph    
Visibility 10 miles    
Events      
Averages and records for this station are not official NWS values.
T = Trace of Precipitation, MM = Missing Value Source: NWS Daily Summary

Daily Weather History Graph

Daily Weather History Graph

Search for Another Location

Airport or City:

Trip Planner

Search our weather history database for the weather conditions in past years. The results will help you decide how hot, cold, wet, or windy it might be!

Date:

Astronomy

Oct. 23, 2012 Rise Set
Actual Time 7:36 AM CDT 6:43 PM CDT
Civil Twilight 7:11 AM CDT 7:08 PM CDT
Nautical Twilight 6:42 AM CDT 7:37 PM CDT
Astronomical Twilight 6:14 AM CDT 8:05 PM CDT
Moon 3:10 PM CDT (10/23) 1:48 AM CDT (10/23)
Length of Visible Light 11h 56m
Length of Day
11h 06m
Waxing Gibbous, 67% of the Moon is Illuminated
Oct 23
Waxing Gibbous
Oct 29
Full
Nov 6
Last Quarter
Nov 13
New
Nov 20
First Quarter

Hourly Weather History & Observations

Time (CDT) Temp. Heat Index Dew Point Humidity Pressure Visibility Wind Dir Wind Speed Gust Speed Precip Events Conditions
12:35 AM 68.0 °F - 64.4 °F 88% 29.94 in 10.0 mi South 6.9 mph - N/A   Clear
1:15 AM 69.8 °F - 64.4 °F 83% 29.94 in 10.0 mi South 11.5 mph - N/A   Clear
1:55 AM 69.8 °F - 64.4 °F 83% 29.94 in 10.0 mi South 11.5 mph - N/A   Clear
2:35 AM 68.0 °F - 64.4 °F 88% 29.94 in 10.0 mi South 10.4 mph - N/A   Scattered Clouds
2:55 AM 68.0 °F - 64.4 °F 88% 29.94 in 10.0 mi South 10.4 mph - N/A   Scattered Clouds
3:15 AM 68.0 °F - 64.4 °F 88% 29.94 in 10.0 mi SSE 9.2 mph - N/A   Scattered Clouds
3:35 AM 68.0 °F - 64.4 °F 88% 29.94 in 10.0 mi SSE 8.1 mph - N/A   Scattered Clouds
3:55 AM 68.0 °F - 64.4 °F 88% 29.94 in 10.0 mi South 9.2 mph - N/A   Scattered Clouds
4:15 AM 68.0 °F - 64.4 °F 88% 29.94 in 10.0 mi SSE 8.1 mph - N/A   Scattered Clouds
4:35 AM 68.0 °F - 64.4 °F 88% 29.95 in 10.0 mi SSE 9.2 mph - N/A   Mostly Cloudy
4:55 AM 68.0 °F - 64.4 °F 88% 29.95 in 10.0 mi SSE 9.2 mph - N/A   Mostly Cloudy
5:15 AM 68.0 °F - 64.4 °F 88% 29.95 in 10.0 mi South 10.4 mph - N/A   Scattered Clouds
5:55 AM 66.2 °F - 64.4 °F 94% 29.95 in 7.0 mi SSE 8.1 mph - N/A   Mostly Cloudy
6:15 AM 66.2 °F - 64.4 °F 94% 29.96 in 7.0 mi SSE 10.4 mph - N/A   Overcast
6:35 AM 68.0 °F - 64.4 °F 88% 29.96 in 7.0 mi SSE 12.7 mph - N/A   Overcast
7:15 AM 68.0 °F - 64.4 °F 88% 29.96 in 10.0 mi SSE 10.4 mph - N/A   Overcast
8:55 AM 69.8 °F - 64.4 °F 83% 29.99 in 10.0 mi SSE 9.2 mph - N/A   Overcast
9:35 AM 69.8 °F - 66.2 °F 88% 29.99 in 10.0 mi South 11.5 mph - N/A   Overcast
10:15 AM 71.6 °F - 66.2 °F 83% 29.99 in 10.0 mi South 15.0 mph - N/A   Overcast
10:35 AM 71.6 °F - 66.2 °F 83% 29.99 in 10.0 mi South 12.7 mph 20.7 mph N/A   Overcast
10:55 AM 73.4 °F - 66.2 °F 78% 29.99 in 10.0 mi SSE 12.7 mph - N/A   Overcast
11:15 AM 73.4 °F - 66.2 °F 78% 29.99 in 10.0 mi South 11.5 mph 17.3 mph N/A   Overcast
11:35 AM 75.2 °F - 66.2 °F 73% 29.99 in 10.0 mi South 11.5 mph - N/A   Overcast
11:55 AM 77.0 °F - 66.2 °F 69% 29.98 in 10.0 mi South 12.7 mph - N/A   Mostly Cloudy
12:15 PM 77.0 °F - 66.2 °F 69% 29.98 in 10.0 mi South 13.8 mph 19.6 mph N/A   Overcast
12:35 PM 77.0 °F - 66.2 °F 69% 29.98 in 10.0 mi South 12.7 mph - N/A   Overcast
12:55 PM 78.8 °F - 66.2 °F 65% 29.97 in 10.0 mi South 13.8 mph 19.6 mph N/A   Mostly Cloudy
1:15 PM 80.6 °F 83.2 °F 68.0 °F 65% 29.95 in 10.0 mi South 11.5 mph - N/A   Mostly Cloudy
1:35 PM 80.6 °F 82.7 °F 66.2 °F 61% 29.94 in 10.0 mi South 12.7 mph 18.4 mph N/A   Mostly Cloudy
1:55 PM 82.4 °F 84.6 °F 66.2 °F 58% 29.94 in 10.0 mi South 12.7 mph - N/A   Scattered Clouds
2:15 PM 78.8 °F - 66.2 °F 65% 29.93 in 10.0 mi SSE 17.3 mph - N/A   Mostly Cloudy
2:35 PM 80.6 °F 82.7 °F 66.2 °F 61% 29.93 in 10.0 mi South 10.4 mph 20.7 mph N/A   Overcast
3:15 PM 82.4 °F 84.6 °F 66.2 °F 58% 29.91 in 10.0 mi South 15.0 mph 20.7 mph N/A   Mostly Cloudy
3:35 PM 82.4 °F 83.9 °F 64.4 °F 54% 29.91 in 10.0 mi South 15.0 mph 20.7 mph N/A   Scattered Clouds
3:55 PM 82.4 °F 84.6 °F 66.2 °F 58% 29.91 in 10.0 mi South 12.7 mph 20.7 mph N/A   Scattered Clouds
4:15 PM 82.4 °F 83.9 °F 64.4 °F 54% 29.90 in 10.0 mi SSE 16.1 mph 19.6 mph N/A   Scattered Clouds
4:35 PM 82.4 °F 83.9 °F 64.4 °F 54% 29.91 in 10.0 mi South 15.0 mph - N/A   Scattered Clouds
4:55 PM 82.4 °F 83.9 °F 64.4 °F 54% 29.90 in 10.0 mi SSE 15.0 mph - N/A   Scattered Clouds
5:15 PM 82.4 °F 83.9 °F 64.4 °F 54% 29.90 in 10.0 mi South 13.8 mph - N/A   Scattered Clouds
5:35 PM 80.6 °F 82.3 °F 64.4 °F 58% 29.91 in 10.0 mi South 16.1 mph - N/A   Clear
5:55 PM 80.6 °F 82.3 °F 64.4 °F 58% 29.91 in 10.0 mi South 12.7 mph - N/A   Clear
6:15 PM 78.8 °F - 64.4 °F 61% 29.91 in 10.0 mi South 9.2 mph - N/A   Clear
6:35 PM 78.8 °F - 64.4 °F 61% 29.91 in 10.0 mi SSE 9.2 mph - N/A   Clear
6:55 PM 77.0 °F - 64.4 °F 65% 29.91 in 10.0 mi SSE 9.2 mph - N/A   Clear
7:15 PM 75.2 °F - 64.4 °F 69% 29.91 in 10.0 mi SSE 8.1 mph - N/A   Clear
7:35 PM 73.4 °F - 64.4 °F 73% 29.92 in 10.0 mi SSE 10.4 mph - N/A   Clear
7:55 PM 73.4 °F - 64.4 °F 73% 29.92 in 10.0 mi SSE 10.4 mph - N/A   Clear
8:15 PM 73.4 °F - 64.4 °F 73% 29.92 in 10.0 mi SSE 8.1 mph - N/A   Clear
8:35 PM 73.4 °F - 62.6 °F 69% 29.92 in 10.0 mi SSE 8.1 mph - N/A   Clear
8:55 PM 71.6 °F - 62.6 °F 73% 29.93 in 10.0 mi SSE 8.1 mph - N/A   Clear
9:15 PM 71.6 °F - 62.6 °F 73% 29.93 in 10.0 mi SSE 9.2 mph - N/A   Clear
9:35 PM 71.6 °F - 62.6 °F 73% 29.94 in 10.0 mi South 6.9 mph - N/A   Clear
9:55 PM 69.8 °F - 62.6 °F 78% 29.93 in 10.0 mi South 8.1 mph - N/A   Clear
10:15 PM 69.8 °F - 62.6 °F 78% 29.93 in 10.0 mi SSE 6.9 mph - N/A   Clear
10:35 PM 69.8 °F - 62.6 °F 78% 29.94 in 10.0 mi SSE 5.8 mph - N/A   Clear
10:55 PM 69.8 °F - 62.6 °F 78% 29.94 in 10.0 mi SSE 6.9 mph - N/A   Clear
11:15 PM 69.8 °F - 62.6 °F 78% 29.94 in 10.0 mi SSE 6.9 mph - N/A   Clear
11:35 PM 69.8 °F - 62.6 °F 78% 29.94 in 10.0 mi South 6.9 mph - N/A   Clear
11:55 PM 68.0 °F - 62.6 °F 83% 29.94 in 10.0 mi South 6.9 mph - N/A   Clear